[[{"header":{"parameterUnit":"m.s-1","parameterCategory":1,"la1":30.2991,"la2":30.254,"lo1":-89.0895,"lo2":-89.0444,"dy":0.0017,"dx":0.0017,"nx":28,"ny":28,"refTime":"2025-04-12T03:00:00:Z","depth":0,"parameterNumber":2,"parameterNumberName":"U-component_of_WINDS"},"data":[0,0,0,0,0,0,0,0,0,0,0,0,0,0,0,0,0,0,0,0,0,0,0,0,0,0,0,0,0,0,0,0,0,0,0,0,0,0,0,0,0,0,0,0,0,0,0,0,0,0,0,0,0,0,0,0,0,0,2.3607,2.3607,0,2.3558,2.3557,2.3557,2.3498,2.3497,2.3496,2.3495,2.3442,2.3441,2.3441,0,0,0,0,0,0,0,0,0,0,0,0,0,2.365,2.3649,2.3607,2.3607,2.3606,2.3558,2.3557,2.3557,2.3498,2.3497,2.3496,2.3495,2.3442,2.3441,2.3441,0,0,0,0,0,0,0,0,0,0,0,0,0,2.3619,2.3649,2.3607,2.3571,2.3567,2.3558,2.3557,2.3557,2.3498,2.3497,2.3495,2.3494,2.3442,2.3442,2.3441,2.3463,0,0,2.3438,2.3438,0,0,0,0,0,0,0,0,2.3621,2.3617,2.3577,2.3573,2.3569,2.3533,2.3553,2.3525,2.3498,2.3524,2.3495,2.3493,2.3473,2.347,2.3463,2.346,2.3458,2.3438,2.3438,2.3437,2.3437,0,0,0,0,0,0,0,2.3623,2.3619,2.3588,2.3576,2.3572,2.3557,2.3551,2.3547,2.3507,2.3522,2.3517,2.3513,2.3471,2.3464,2.3462,2.3457,2.3438,2.3437,2.3437,2.3436,2.3472,2.3473,0,0,0,0,0,0,2.3631,2.3621,2.3589,2.3586,2.3592,2.3557,2.3551,2.3546,2.3507,2.3499,2.3514,2.351,2.3466,2.3463,2.3459,2.3484,2.3437,2.3436,2.3436,2.347,2.3472,2.3474,0,0,0,0,0,0,2.3632,2.3628,2.3591,2.3603,2.3597,2.3558,2.3553,2.3545,2.3539,2.3501,2.3493,2.3515,2.3465,2.3461,2.3463,2.3481,2.3436,2.3435,2.3469,2.3471,2.3473,2.3532,0,0,0,0,0,0,2.3633,2.3629,2.3637,2.3603,2.3596,2.3596,2.3554,2.3546,2.3538,2.3533,2.3499,2.3493,2.3464,2.3465,2.3462,2.3479,2.3435,2.3467,2.347,2.3472,2.3528,2.3536,2.3542,0,0,0,0,0,2.3635,2.3655,2.3638,2.3634,2.3606,2.3597,2.3593,2.356,2.354,2.3547,2.3523,2.3494,2.348,2.3465,2.3462,2.3479,2.3465,2.3469,2.3472,2.3525,2.3534,2.3542,0,0,0,0,0,0,2.369,2.365,2.363,2.364,2.3623,2.3587,2.3596,2.3571,2.3558,2.3554,2.3513,2.3506,2.3513,2.3496,2.3481,2.3499,2.3468,2.3471,2.351,2.3518,2.3525,2.3529,2.3434,0,0,0,0,0,2.3704,2.3701,2.3665,2.3677,2.367,2.3635,2.3629,2.3606,2.3586,2.3578,2.3554,2.3535,2.3527,2.3521,2.3511,2.3526,2.3518,2.3536,2.3543,2.3549,2.3552,2.3559,2.3567,2.3484,2.3484,2.3484,0,0,2.3731,2.3709,2.3709,2.3688,2.3671,2.3669,2.3629,2.3627,2.3625,2.3577,2.3578,2.3561,2.3537,2.3546,2.3549,2.3532,2.3573,2.3553,2.3558,2.3557,2.3563,2.3571,2.3578,2.3487,2.3486,2.3486,0,0,2.378,2.3763,2.3771,2.3756,2.3733,2.371,2.3713,2.3681,2.3668,2.3669,2.3634,2.363,2.3616,2.3601,2.3592,2.3638,2.3611,2.3636,2.3673,2.3681,2.3687,2.3693,2.371,2.3716,2.3639,2.3639,2.3639,0,2.3817,2.3812,2.3778,2.378,2.3772,2.3731,2.3739,2.3726,2.3701,2.3696,2.3678,2.3661,2.3642,2.3648,2.366,2.3653,2.3655,2.3639,2.3689,2.3694,2.3699,2.3715,2.3721,2.3642,2.3642,2.3642,2.3641,0,2.3859,2.3856,2.3866,2.3844,2.3837,2.3842,2.3809,2.3806,2.3784,2.3763,2.3766,2.3742,2.3727,2.3727,2.3704,2.373,2.3721,2.3697,2.3665,2.3711,2.3725,2.373,2.3647,2.3646,2.3645,2.3644,0,0,2.3938,2.39,2.3904,2.3894,2.3866,2.3864,2.3868,2.3854,2.3853,2.3838,2.384,2.383,2.3809,2.3798,2.3774,2.3781,2.3821,2.3757,2.3756,2.3769,2.3848,2.3866,2.3873,2.3803,2.3804,2.3805,2.385,0,2.3982,2.3986,2.3957,2.397,2.3967,2.393,2.3933,2.3917,2.3898,2.3893,2.3872,2.3866,2.3838,2.3832,2.3837,2.3815,2.3836,2.3811,2.3804,2.3804,2.3811,2.388,2.3898,2.3942,2.3855,2.3856,2.3857,0,2.4032,2.4021,2.4034,2.4008,2.4005,2.4009,2.3996,2.3992,2.3973,2.3959,2.3949,2.3922,2.3924,2.3895,2.3898,2.3882,2.3878,2.3867,2.3868,2.3865,2.3833,2.3879,2.3955,2.3961,2.3865,2.3864,2.3864,0,2.409,2.4078,2.4084,2.4077,2.4046,2.405,2.4037,2.4017,2.4012,2.4,2.3996,2.3985,2.3978,2.397,2.3941,2.3923,2.3948,2.3916,2.3936,2.3937,2.3942,2.3942,2.4017,2.394,2.394,2.394,2.394,0,2.414,2.415,2.411,2.4113,2.4123,2.409,2.41,2.4084,2.4067,2.4067,2.4034,2.4035,2.3997,2.3993,2.3971,2.3977,2.3974,2.3963,2.3957,2.3965,2.3967,2.3961,2.3957,2.3942,2.3941,2.3941,2.3941,0,2.4205,2.4179,2.4183,2.4155,2.4148,2.4156,2.4132,2.4134,2.4115,2.4116,2.4114,2.4082,2.4077,2.4048,2.4035,2.402,2.4034,2.4022,2.4041,2.4037,2.4058,2.4057,2.4132,2.4141,2.4059,2.406,2.4061,0,2.4239,2.4245,2.4219,2.4217,2.4206,2.4203,2.4198,2.4167,2.4163,2.4144,2.4149,2.4141,2.4133,2.4126,2.4102,2.4093,2.408,2.4108,2.4078,2.4088,2.408,2.408,2.4081,2.4113,2.4114,2.4115,2.4116,0,2.4302,2.4289,2.4283,2.4274,2.4269,2.426,2.4248,2.4249,2.4214,2.4212,2.4206,2.4201,2.4189,2.4182,2.4169,2.4156,2.413,2.4126,2.413,2.4138,2.4149,2.4144,2.4057,2.4124,2.4123,2.4122,2.4122,2.4122,2.4352,2.4356,2.4339,2.4334,2.4323,2.4313,2.4315,2.4296,2.4292,2.428,2.4262,2.426,2.4243,2.4223,2.4212,2.421,2.4195,2.4201,2.4203,2.4204,2.4209,2.4151,2.4208,2.4207,2.4207,2.4207,2.4207,0,2.4413,2.44,2.4397,2.4383,2.4379,2.4357,2.4344,2.4343,2.4341,2.4328,2.4321,2.4316,2.431,2.4287,2.4278,2.4281,2.4269,2.428,2.4279,2.4276,2.4223,2.422,2.4289,2.4289,2.4289,2.4289,2.4289,2.4289,2.4444,2.4451,2.4437,2.4438,2.4425,2.4423,2.4418,2.4409,2.4399,2.4395,2.439,2.4375,2.4358,2.4348,2.4342,2.4335,2.4333,2.4348,2.4337,2.4288,2.428,2.4272,2.4269,2.4348,2.4348,2.4391,2.4391,2.4392]},{"header":{"parameterUnit":"m.s-1","parameterCategory":1,"la1":30.2991,"la2":30.254,"lo1":-89.0895,"lo2":-89.0444,"dy":0.0017,"dx":0.0017,"nx":28,"ny":28,"refTime":"2025-04-12T03:00:00:Z","depth":0,"parameterNumber":3,"parameterNumberName":"V-component_of_WINDS"},"data":[0,0,0,0,0,0,0,0,0,0,0,0,0,0,0,0,0,0,0,0,0,0,0,0,0,0,0,0,0,0,0,0,0,0,0,0,0,0,0,0,0,0,0,0,0,0,0,0,0,0,0,0,0,0,0,0,0,0,-4.1045,-4.1046,0,-4.113,-4.1131,-4.1132,-4.114,-4.1139,-4.1138,-4.1137,-4.1223,-4.1226,-4.1229,0,0,0,0,0,0,0,0,0,0,0,0,0,-4.0892,-4.0895,-4.1045,-4.1046,-4.1047,-4.1129,-4.1131,-4.1132,-4.114,-4.1139,-4.1138,-4.1137,-4.1222,-4.1226,-4.123,0,0,0,0,0,0,0,0,0,0,0,0,0,-4.0966,-4.0896,-4.1045,-4.1061,-4.1064,-4.1129,-4.1131,-4.1132,-4.114,-4.1139,-4.1138,-4.1136,-4.1221,-4.1226,-4.123,-4.1285,0,0,-4.1244,-4.1246,0,0,0,0,0,0,0,0,-4.0962,-4.0971,-4.1058,-4.106,-4.1063,-4.1123,-4.1108,-4.1183,-4.1141,-4.1111,-4.1137,-4.1136,-4.1191,-4.1198,-4.1217,-4.1289,-4.1293,-4.1245,-4.1248,-4.125,-4.1251,0,0,0,0,0,0,0,-4.0957,-4.0968,-4.1079,-4.1059,-4.1062,-4.1065,-4.1074,-4.1123,-4.1157,-4.1114,-4.1114,-4.1124,-4.1192,-4.1212,-4.1219,-4.1294,-4.1245,-4.1249,-4.1252,-4.1254,-4.1417,-4.1419,0,0,0,0,0,0,-4.0948,-4.0964,-4.1076,-4.1081,-4.1008,-4.1069,-4.1079,-4.1105,-4.1157,-4.1163,-4.1125,-4.1124,-4.1205,-4.1213,-4.1222,-4.129,-4.125,-4.1254,-4.1257,-4.1416,-4.1418,-4.1419,0,0,0,0,0,0,-4.0945,-4.0958,-4.1073,-4.1023,-4.1037,-4.1073,-4.1102,-4.1107,-4.1127,-4.1166,-4.1172,-4.1139,-4.1204,-4.1215,-4.127,-4.1293,-4.1256,-4.126,-4.1414,-4.1416,-4.1419,-4.1427,0,0,0,0,0,0,-4.0941,-4.0957,-4.0978,-4.1023,-4.104,-4.1119,-4.1104,-4.111,-4.1135,-4.1135,-4.1181,-4.1187,-4.1204,-4.1263,-4.1274,-4.1299,-4.1264,-4.1412,-4.1415,-4.1418,-4.1424,-4.1429,-4.1433,0,0,0,0,0,-4.0935,-4.0976,-4.0979,-4.0992,-4.1067,-4.112,-4.113,-4.1149,-4.1137,-4.1159,-4.1184,-4.1185,-4.1289,-4.1268,-4.1281,-4.1308,-4.1411,-4.1414,-4.1418,-4.1422,-4.1428,-4.1433,0,0,0,0,0,0,-4.0933,-4.0983,-4.0986,-4.1043,-4.1077,-4.1121,-4.1149,-4.1154,-4.1192,-4.119,-4.1212,-4.1222,-4.1276,-4.1297,-4.1273,-4.1364,-4.1349,-4.1355,-4.1348,-4.1353,-4.1358,-4.1351,-4.1268,0,0,0,0,0,-4.0939,-4.0978,-4.1019,-4.1066,-4.1083,-4.1113,-4.1137,-4.1149,-4.1185,-4.1199,-4.1228,-4.1263,-4.1304,-4.133,-4.1369,-4.1428,-4.1438,-4.1453,-4.1457,-4.146,-4.1465,-4.1499,-4.1506,-4.1431,-4.1431,-4.1431,0,0,-4.0952,-4.0984,-4.1007,-4.1066,-4.1094,-4.1134,-4.1125,-4.1167,-4.1197,-4.1206,-4.1259,-4.1282,-4.1322,-4.1379,-4.1406,-4.1399,-4.1488,-4.1465,-4.1467,-4.147,-4.1503,-4.151,-4.1516,-4.1433,-4.1433,-4.1433,0,0,-4.0996,-4.1024,-4.1066,-4.1095,-4.1137,-4.1157,-4.1167,-4.1211,-4.1227,-4.1281,-4.1288,-4.1324,-4.1394,-4.1423,-4.1446,-4.1504,-4.1507,-4.1516,-4.1537,-4.157,-4.1576,-4.1581,-4.1601,-4.1608,-4.1521,-4.1521,-4.1521,0,-4.1006,-4.1067,-4.1087,-4.113,-4.1156,-4.1166,-4.1209,-4.1236,-4.1289,-4.1307,-4.1299,-4.1387,-4.1415,-4.1479,-4.1493,-4.1513,-4.1525,-4.151,-4.1573,-4.1579,-4.1584,-4.1604,-4.1611,-4.1522,-4.1522,-4.1522,-4.1522,0,-4.1078,-4.112,-4.1149,-4.12,-4.123,-4.1273,-4.13,-4.1327,-4.1337,-4.1358,-4.1414,-4.1448,-4.1495,-4.1512,-4.1522,-4.1578,-4.1572,-4.1569,-4.1553,-4.1592,-4.161,-4.1618,-4.1523,-4.1523,-4.1522,-4.1522,0,0,-4.1121,-4.1184,-4.1195,-4.1219,-4.1267,-4.13,-4.1344,-4.139,-4.1414,-4.1451,-4.1488,-4.1547,-4.1545,-4.1572,-4.1585,-4.1614,-4.1657,-4.1607,-4.1608,-4.1614,-4.1722,-4.1724,-4.1732,-4.166,-4.1662,-4.1663,-4.1718,0,-4.117,-4.1248,-4.1268,-4.1334,-4.1374,-4.1385,-4.1423,-4.1457,-4.1479,-4.1516,-4.154,-4.1581,-4.1574,-4.1591,-4.162,-4.1646,-4.1679,-4.1642,-4.1695,-4.1697,-4.1683,-4.1742,-4.1744,-4.1794,-4.1726,-4.1727,-4.1728,0,-4.1237,-4.1276,-4.1346,-4.1391,-4.1408,-4.1442,-4.1487,-4.1522,-4.1561,-4.1575,-4.1606,-4.1618,-4.1664,-4.1647,-4.1712,-4.1687,-4.171,-4.1726,-4.1729,-4.1734,-4.1714,-4.1748,-4.1811,-4.1818,-4.174,-4.1739,-4.1738,0,-4.1261,-4.1331,-4.1382,-4.1403,-4.1456,-4.148,-4.1503,-4.1541,-4.1568,-4.1608,-4.1626,-4.167,-4.1694,-4.1729,-4.1752,-4.1737,-4.1815,-4.18,-4.1827,-4.1827,-4.1842,-4.1841,-4.1909,-4.1858,-4.1858,-4.1858,-4.1858,0,-4.1313,-4.1356,-4.1394,-4.1425,-4.1474,-4.1497,-4.1545,-4.1568,-4.1603,-4.1639,-4.1652,-4.1687,-4.1716,-4.1754,-4.1773,-4.1824,-4.1835,-4.1847,-4.1851,-4.1845,-4.1844,-4.186,-4.1857,-4.186,-4.186,-4.1859,-4.1859,0,-4.1348,-4.1375,-4.1432,-4.1478,-4.1491,-4.1524,-4.1564,-4.1595,-4.1618,-4.1664,-4.1677,-4.1712,-4.1758,-4.1785,-4.1843,-4.1856,-4.1912,-4.1915,-4.1898,-4.19,-4.1926,-4.1923,-4.2007,-4.2019,-4.1961,-4.1961,-4.1962,0,-4.1379,-4.1412,-4.1462,-4.1488,-4.1511,-4.1552,-4.158,-4.1606,-4.1634,-4.1683,-4.1708,-4.1755,-4.1794,-4.1867,-4.1898,-4.1943,-4.1946,-4.1973,-4.1953,-4.1946,-4.1946,-4.1944,-4.1947,-4.1976,-4.1976,-4.1977,-4.1977,0,-4.1431,-4.1443,-4.1483,-4.1527,-4.156,-4.1597,-4.1633,-4.1653,-4.1685,-4.1717,-4.1764,-4.1794,-4.1854,-4.19,-4.1948,-4.1973,-4.198,-4.1983,-4.1992,-4.1985,-4.1974,-4.198,-4.1907,-4.1981,-4.198,-4.198,-4.198,-4.198,-4.1464,-4.1494,-4.1535,-4.1579,-4.1609,-4.1643,-4.1675,-4.1702,-4.1742,-4.1792,-4.1805,-4.1855,-4.1895,-4.196,-4.1986,-4.2026,-4.2021,-4.2034,-4.2037,-4.2039,-4.204,-4.1969,-4.2034,-4.2034,-4.2034,-4.2034,-4.2034,0,-4.1517,-4.1544,-4.1584,-4.1634,-4.1669,-4.1674,-4.1715,-4.1744,-4.1788,-4.1825,-4.1863,-4.1918,-4.1963,-4.1999,-4.2046,-4.2071,-4.2075,-4.2082,-4.208,-4.2086,-4.2041,-4.2029,-4.2077,-4.2077,-4.2077,-4.2077,-4.2077,-4.2077,-4.1548,-4.1599,-4.1617,-4.1683,-4.171,-4.1759,-4.1782,-4.1814,-4.1843,-4.1904,-4.1942,-4.1965,-4.2002,-4.2052,-4.2094,-4.2104,-4.212,-4.2126,-4.2136,-4.2093,-4.2089,-4.2084,-4.2072,-4.213,-4.213,-4.2177,-4.2177,-4.2178]}]]